Location: Unspecified
(57.8690°N, 0.0000°E)
Time: 09:53:20
(UTC+00:00)

AO-7 - Visible Passes

Search period start: 04 April 2026 00:00
Search period end: 14 April 2026 00:00
Orbit: 1440 x 1458 km, 102.0° (Epoch: 29 March)

Date Brightness Start Highest point End Pass type
(mag) Time Alt. Az. Time Alt. Az. Time Alt. Az.
4 Apr ? 04:21:26 10° NE 04:24:50 13° ENE 04:28:13 10° E visible
4 Apr ? 19:16:54 10° SW 19:23:04 22° W 19:29:18 10° NW visible
5 Apr ? 20:15:09 10° W 20:17:24 11° WNW 20:19:40 10° WNW visible
6 Apr ? 04:14:59 10° NE 04:17:27 11° ENE 04:19:55 10° E visible
7 Apr ? 20:06:47 10° W 20:10:01 12° WNW 20:13:16 10° NW visible
8 Apr ? 04:09:23 10° ENE 04:10:04 10° ENE 04:10:45 10° ENE visible
9 Apr ? 19:58:42 10° WSW 20:02:38 14° WNW 20:06:37 10° NW visible
11 Apr ? 19:50:45 10° WSW 19:55:17 15° WNW 19:59:50 10° NW visible
13 Apr ? 19:42:56 10° WSW 19:47:56 17° W 19:52:59 10° NW visible
